Terminal Aerodrome Forecast
Issued by NWS St Louis, MO

Home | Current Version | Previous Version | Text Only | Print | Product List | Glossary On
Versions: 1 2 3 4 5 6 7 8 9 10 11 12
000
FTUS43 KLSX 222300
TAFCOU
TAF
KCOU 222328Z 2300/2324 13006KT P6SM SKC
     FM231000 15007KT P6SM SCT120 BKN250
     FM231500 19009KT P6SM SCT050 BKN100=

USA.gov is the U.S. government's official web portal to all federal, state and local government web resources and services.